Torna al catalogo

STARLINK-3528

AttivoComunicazioniVLEO
NORAD 51714·PAYLOAD·🇺🇸 United States

Lanciato Feb 21, 2022 da Cape Canaveral Space Force Station

Loading…

Prossimi Passaggi (prossime 24 ore)

TLE

AggiornatoSource: CelesTrak SupGP

Epoca: Sep 15, 2026, 01:53 UTC

1 51714C 22016A   26258.07895833 -.00028568  00000+0 -81747-3 0  2583
2 51714  53.1574 188.8995 0001287  82.2650 161.1728 15.35408740    18

Traccia STARLINK-3528 in tempo reale con AllMySat

Download on the App Store